Theta_e
317 318 316 315 320 322 324 328 329 329 330 328 326 325 324 323 323 322 321 321 320 319 319 320 320 321 321 322 323 324 324 324 324 324 324 324 321 323 324 325 326 326 326 320 314 314 315 316 317 314 315 318 316 317 317 318 323 323 327 327 326 330 329 330 328 323 325 326 321 320 322 322 319 318 316 319 327 328 333 338 336 336 335 333 333 332 334 336
316 317 316 315 319 319 319 325 329 330 330 329 327 326 325 324 324 323 323 322 321 321 320 321 321 322 322 323 324 324 325 325 324 324 324 324 323 323 324 325 326 326 327 321 314 315 316 316 316 315 318 320 317 316 317 318 320 327 331 326 330 337 331 326 323 320 322 322 320 321 321 321 320 318 318 322 325 327 338 339 337 343 337 332 333 333 335 335
316 316 317 315 316 316 314 317 325 330 329 329 328 327 326 325 324 324 323 323 322 322 321 321 322 323 323 324 324 325 325 325 325 325 324 324 325 324 324 325 326 326 327 323 316 315 316 316 315 318 322 322 317 313 316 318 319 327 327 324 337 342 329 320 317 317 319 320 321 321 321 320 320 318 317 323 324 325 337 341 343 346 338 335 334 332 334 334
316 317 318 316 315 314 312 312 319 328 330 329 330 328 327 326 325 324 323 323 323 323 322 322 323 324 324 324 325 326 325 325 327 326 324 324 325 324 325 326 325 327 327 322 317 315 315 314 314 320 327 330 322 314 316 318 317 320 319 325 336 329 321 319 316 316 317 318 319 320 321 321 319 318 317 321 323 323 327 335 344 343 336 336 334 332 333 334
316 317 318 319 318 313 313 316 316 324 330 329 329 329 328 327 325 325 324 324 324 324 323 323 324 325 325 325 326 325 325 328 329 325 324 324 324 325 326 326 325 327 324 319 316 315 314 314 316 322 332 336 328 324 321 315 314 317 317 326 331 320 316 320 318 318 317 316 319 319 320 320 318 317 318 320 322 322 321 326 335 338 335 335 334 333 333 333
314 315 317 318 319 314 313 319 316 320 329 329 329 329 328 328 326 325 324 324 324 324 324 324 325 325 325 325 326 325 326 330 327 323 325 324 324 325 325 325 324 323 320 317 315 316 315 314 318 325 331 334 328 329 322 312 312 315 317 321 324 319 315 318 318 318 318 317 319 319 319 318 317 317 316 319 321 320 319 321 331 335 333 334 333 333 333 332
314 314 316 317 319 316 312 319 320 321 328 329 329 329 328 328 326 326 325 324 324 323 324 324 325 325 324 325 325 324 326 328 322 320 324 324 325 325 324 323 320 318 316 315 315 316 317 317 320 322 328 332 328 327 320 311 311 312 317 319 318 317 316 318 317 317 318 318 319 317 318 318 319 320 315 317 320 320 317 316 328 335 331 333 333 332 332 332
314 313 315 316 318 317 313 317 320 323 328 329 329 329 328 328 327 326 325 325 324 323 324 324 325 324 324 324 324 325 326 326 322 319 322 324 325 323 322 320 317 316 314 314 315 316 316 317 318 319 325 330 326 326 320 314 313 312 317 319 316 316 317 317 316 317 316 316 317 316 318 318 318 317 315 318 318 319 317 316 328 334 331 333 333 333 331 331
314 314 314 315 317 317 315 316 318 320 326 329 329 329 328 328 327 327 326 325 324 324 323 323 324 323 324 323 324 327 327 324 322 320 320 323 323 321 320 317 315 314 313 314 315 315 316 316 316 318 323 325 323 326 322 316 318 315 313 315 315 316 316 315 315 316 317 315 315 317 317 315 315 314 316 319 316 319 318 321 333 335 333 335 333 332 331 330
312 314 314 314 315 317 317 317 317 317 321 328 329 329 328 327 327 327 326 325 324 324 323 323 324 323 324 323 324 327 326 323 323 320 319 322 322 319 319 316 313 312 311 312 314 315 317 315 315 316 318 320 322 326 323 319 319 313 310 313 314 315 315 315 315 315 316 315 315 318 316 314 315 313 316 318 315 323 325 327 334 335 335 335 333 333 331 331
311 313 314 313 313 315 317 318 316 314 317 327 330 328 328 327 327 327 326 325 324 324 323 323 323 323 323 323 324 324 323 323 323 321 319 321 323 320 318 315 312 312 311 311 314 315 316 314 312 315 316 317 319 322 325 321 315 311 311 313 314 315 314 314 315 316 315 314 316 318 316 314 315 314 318 316 315 326 331 332 334 335 335 334 334 333 331 331
312 312 313 314 313 312 315 318 316 312 314 324 329 328 328 327 327 327 326 325 324 323 323 322 322 323 323 323 323 322 321 323 323 322 321 320 322 323 318 313 312 313 312 311 313 314 315 312 312 316 316 315 318 321 322 317 310 310 312 313 315 314 314 315 315 316 315 314 316 317 315 315 316 316 318 316 317 325 331 334 334 335 335 334 334 333 331 330
312 312 312 314 314 311 312 317 318 314 311 320 328 328 328 327 326 326 326 325 324 323 322 322 322 322 323 323 323 320 320 323 323 321 321 321 322 322 316 311 311 312 314 313 313 314 314 313 314 315 313 313 316 317 316 312 309 313 314 313 316 315 316 317 314 315 315 314 315 315 315 318 318 316 315 315 317 325 332 333 332 333 334 333 333 332 332 330
311 313 311 312 315 312 310 314 318 315 310 316 326 328 328 327 326 326 325 325 324 323 321 321 322 322 323 323 321 321 321 320 322 320 321 323 320 319 315 310 310 311 313 314 313 313 313 313 314 312 311 312 313 313 312 311 310 314 314 314 316 317 320 319 313 315 314 313 314 312 315 319 320 317 316 315 316 324 333 331 329 331 332 332 332 332 332 330
310 312 312 312 314 313 311 313 316 317 314 315 323 328 327 326 326 325 325 324 324 323 320 320 321 321 324 323 317 320 321 319 321 319 320 322 320 318 315 311 311 310 311 312 312 313 312 313 314 312 311 311 311 312 312 311 312 313 313 317 317 315 322 322 314 316 316 313 313 312 315 319 319 319 316 314 314 320 328 328 326 327 328 329 330 330 331 329
310 312 312 312 314 314 312 313 315 318 318 317 323 328 327 326 326 324 324 323 323 322 319 319 320 320 325 323 316 319 321 320 320 318 320 321 320 319 315 312 311 310 310 311 312 312 313 314 313 312 311 311 312 312 313 312 316 318 315 320 323 315 318 320 314 316 316 314 313 312 317 319 317 316 313 311 312 315 320 322 321 322 322 324 327 328 329 329
309 311 313 312 314 314 312 314 315 317 317 318 324 327 326 326 325 324 324 323 323 320 318 319 318 320 323 318 317 322 320 319 319 318 318 319 321 319 315 312 310 309 309 310 311 311 312 312 312 313 312 311 312 312 314 314 315 318 314 316 322 316 314 317 315 316 315 314 314 313 315 318 317 315 312 310 311 313 315 316 318 318 318 318 322 325 326 327
309 311 312 313 314 314 313 314 316 317 317 319 325 327 325 325 325 324 323 321 320 317 317 318 318 324 325 316 317 322 319 318 319 317 316 316 319 318 315 311 308 309 310 309 311 310 311 312 311 314 313 311 312 312 315 317 315 317 316 314 316 314 313 315 317 315 314 314 315 314 314 316 317 316 313 311 311 313 313 312 314 315 316 316 318 322 325 326
309 310 312 313 314 313 313 314 315 319 320 321 325 325 324 324 324 322 319 318 318 318 320 320 320 325 326 317 315 318 317 317 317 315 314 314 315 315 312 310 309 310 311 311 311 310 312 312 311 313 314 311 312 312 314 316 315 316 317 315 314 314 313 316 317 315 313 314 315 315 314 315 315 314 314 313 311 312 312 311 311 313 315 315 315 319 322 325
310 310 311 313 313 313 313 314 316 320 322 323 323 324 325 324 322 320 318 318 318 320 321 320 320 321 320 316 313 315 317 316 315 313 313 313 313 312 309 309 310 310 312 314 313 311 312 313 311 312 314 312 311 312 311 312 312 312 313 313 314 314 313 316 318 314 313 314 315 314 314 314 314 315 314 313 312 312 313 313 311 311 312 314 315 316 320 324
311 310 311 313 313 312 313 314 317 320 322 323 323 324 325 323 322 320 319 320 318 317 318 319 319 317 315 313 313 315 316 315 314 312 311 312 312 312 310 309 310 311 312 313 312 310 311 313 312 310 312 312 310 311 310 310 311 310 311 312 313 314 314 315 315 314 313 313 315 314 313 314 313 314 314 312 313 314 314 313 313 311 311 312 314 315 317 319
311 311 311 312 312 312 312 314 318 321 322 323 322 323 323 320 320 320 320 321 318 314 315 318 319 317 313 312 313 315 315 315 315 312 310 311 311 312 311 309 310 310 310 311 311 311 310 312 312 311 312 312 311 311 310 311 311 311 312 311 313 316 315 314 314 314 313 313 317 316 314 315 315 314 312 312 314 315 313 312 312 312 311 310 312 314 315 317
312 312 312 313 312 312 312 315 319 321 322 322 322 321 320 318 318 318 319 320 318 315 315 317 320 318 313 311 314 314 314 315 315 313 310 309 311 310 310 309 310 310 309 310 311 311 312 313 312 312 311 310 311 310 310 311 310 311 313 312 314 317 315 314 313 313 313 313 315 316 315 316 315 314 314 313 313 314 313 312 312 312 312 312 311 311 314 316
313 312 312 313 313 312 312 315 320 322 322 322 320 320 319 318 318 318 318 318 318 316 315 317 319 316 313 312 313 315 315 314 314 313 310 309 310 309 309 309 309 309 309 310 310 311 313 313 312 311 311 311 311 310 310 311 310 312 314 312 314 318 317 314 314 313 313 312 313 315 316 319 318 315 317 315 312 312 312 312 312 312 312 312 312 311 312 315
313 312 313 313 313 312 313 317 321 322 321 321 320 318 318 318 318 318 318 318 318 314 313 317 316 315 313 312 314 315 315 314 313 312 309 309 309 309 309 308 309 310 309 310 311 311 312 312 311 311 311 311 311 311 311 311 311 311 314 314 314 318 319 316 316 316 313 313 314 312 315 327 328 320 317 314 311 312 311 312 313 313 312 311 312 312 312 313
315 311 312 314 313 313 315 319 322 321 320 319 319 317 317 318 317 317 318 319 318 313 314 318 316 314 313 313 314 314 317 317 313 311 310 309 309 309 309 308 310 311 309 309 311 312 312 310 310 312 312 313 312 311 311 312 310 311 315 317 315 318 321 319 318 318 317 314 314 312 315 325 324 319 320 316 312 314 312 311 313 312 312 311 310 311 311 312
314 311 313 314 313 315 318 321 321 321 320 318 317 316 317 317 316 316 318 321 320 315 315 317 314 314 314 313 313 317 322 320 312 310 310 309 309 309 309 309 310 309 308 310 313 313 311 309 310 312 312 313 312 310 311 312 310 314 321 321 319 320 324 324 318 320 322 316 316 319 318 317 315 316 320 315 313 317 315 313 314 311 310 311 310 310 311 311
313 311 313 314 314 316 320 320 320 320 320 317 316 316 317 316 315 315 318 321 320 313 314 315 313 313 314 314 315 317 318 316 313 312 310 309 310 309 309 309 309 309 308 311 314 313 311 311 312 312 312 312 311 309 313 313 312 319 326 322 320 321 324 325 320 322 320 314 318 323 316 313 319 323 322 316 313 317 319 318 317 314 310 310 310 310 310 311
312 313 315 314 315 317 319 319 319 320 319 316 316 317 315 315 315 316 317 318 316 313 316 316 313 312 314 317 319 316 313 314 315 312 310 311 311 310 310 310 309 309 310 311 315 314 311 311 313 311 310 312 312 312 315 314 312 319 323 321 322 325 324 323 325 325 317 312 320 324 315 313 322 328 324 316 313 317 320 318 316 315 312 309 310 310 311 311
313 314 315 315 317 319 319 318 319 319 317 316 316 316 315 315 316 318 319 317 314 315 316 314 313 312 314 316 317 314 314 316 313 311 311 313 313 311 310 310 309 312 314 312 315 317 311 310 314 313 312 313 313 314 317 317 314 316 321 321 322 325 327 331 335 328 315 315 323 325 319 313 316 325 323 315 315 318 318 317 316 315 315 313 312 311 311 313
315 316 316 317 319 320 318 318 317 316 316 315 316 315 315 316 316 318 319 316 315 316 313 312 314 313 313 314 314 313 314 314 311 311 312 313 314 312 309 310 311 315 317 313 315 316 311 311 314 313 314 317 315 314 317 319 316 318 325 323 318 324 330 332 334 325 315 319 323 321 318 314 314 322 323 318 317 316 315 316 317 317 319 318 318 315 312 314
316 316 317 318 320 319 318 317 315 315 315 315 315 316 317 317 317 318 317 314 316 316 313 314 314 313 313 313 314 314 314 313 312 312 312 312 313 310 309 311 310 313 314 311 314 314 312 314 313 311 312 315 317 315 316 318 316 318 323 319 317 322 322 321 323 321 319 320 316 315 315 314 315 318 318 317 315 315 313 312 314 317 317 319 327 328 321 320
317 317 318 319 319 318 318 316 314 315 315 314 316 317 317 318 319 319 316 314 316 315 314 314 314 314 314 313 314 314 314 313 312 312 312 312 312 310 311 313 312 315 316 313 314 313 315 318 315 312 311 312 315 315 315 319 315 314 317 317 320 322 315 315 319 317 318 319 315 312 313 316 318 317 317 316 312 314 313 310 312 314 314 319 329 332 328 325
318 319 319 319 319 317 316 315 315 315 314 315 318 318 318 319 319 318 315 314 315 314 314 314 314 315 314 313 313 313 315 315 312 313 313 312 312 311 312 312 313 319 320 316 314 313 315 317 315 314 313 311 314 315 319 323 317 316 319 318 322 325 319 317 320 320 321 322 316 311 314 320 319 315 317 315 312 314 314 314 315 316 317 321 324 325 326 325
318 319 319 318 317 316 315 315 315 315 315 317 317 317 318 320 318 316 315 313 313 314 314 314 314 315 314 314 313 312 315 315 312 313 313 312 312 311 311 310 310 316 317 314 313 313 314 316 316 314 312 312 314 315 319 319 316 318 320 318 319 323 327 322 320 326 327 322 317 312 316 324 319 313 314 313 312 314 314 314 316 319 321 319 321 324 325 325
319 318 317 316 315 315 314 315 315 315 316 317 316 317 319 319 318 316 314 313 314 314 314 314 315 315 314 313 313 313 314 314 313 314 313 312 312 312 312 311 310 313 313 313 314 315 314 315 315 314 311 311 313 315 318 317 317 317 315 319 320 319 326 323 314 316 317 316 319 314 316 323 319 315 317 316 313 314 315 315 314 319 320 317 322 325 323 325
318 317 316 315 314 314 315 315 315 315 316 316 317 319 318 317 316 315 313 313 314 313 314 315 315 315 314 313 313 314 314 314 313 314 314 313 312 312 312 311 311 311 311 313 314 314 317 316 314 314 313 310 309 313 317 316 317 319 316 319 319 314 320 323 316 314 312 316 323 316 314 322 319 318 323 320 315 315 318 317 313 315 317 318 322 323 322 323
316 316 316 315 314 314 314 315 315 315 316 317 318 318 317 315 315 313 312 313 313 313 314 315 315 315 314 313 313 313 314 314 312 314 314 313 315 314 311 311 311 311 312 313 312 314 318 318 314 312 313 313 313 315 316 312 311 318 319 317 318 317 318 320 318 317 313 314 324 319 314 318 319 321 325 318 315 319 317 315 314 314 314 315 318 320 320 322
315 317 317 315 314 314 314 315 315 316 316 317 317 317 316 315 313 312 312 313 314 314 315 315 314 315 314 314 313 312 313 314 312 313 313 313 315 314 310 311 311 311 311 312 315 314 316 320 317 312 311 314 315 315 316 314 311 314 315 313 316 319 320 319 318 319 318 317 323 319 314 319 322 323 324 317 315 318 313 313 319 318 314 311 314 317 319 322
316 318 317 314 314 314 315 315 316 316 315 316 316 316 315 313 312 312 312 313 315 315 315 315 314 315 314 314 313 312 314 315 312 312 314 312 312 312 310 310 311 311 311 314 317 314 313 318 320 314 310 312 315 316 319 317 313 314 315 314 314 313 316 320 318 320 322 323 326 318 317 328 328 319 319 317 315 317 314 314 319 321 316 312 312 315 319 325
317 319 316 314 314 314 315 316 316 315 314 315 315 314 313 312 311 312 313 314 315 315 316 315 314 315 314 313 313 312 313 314 312 312 314 312 311 312 311 309 310 311 311 314 317 316 315 316 319 317 313 315 319 318 318 317 314 314 315 315 315 314 316 317 315 317 318 319 325 320 317 328 328 317 317 318 318 320 320 318 320 322 320 318 317 316 318 323
317 318 316 314 314 314 316 317 315 314 313 314 315 314 313 312 311 312 314 314 315 315 315 315 314 315 314 313 313 313 313 314 312 312 314 312 312 314 312 310 310 310 311 313 313 316 319 318 320 319 316 318 318 313 311 314 315 315 314 315 316 315 318 319 317 321 318 314 319 318 314 321 328 323 320 320 321 320 319 319 320 323 323 324 323 319 316 317
316 316 315 314 314 315 316 316 314 313 313 314 316 315 313 311 310 312 314 314 314 314 314 315 314 314 314 313 313 313 313 313 312 313 314 312 312 315 314 311 311 311 312 314 313 316 320 319 320 319 316 319 321 315 311 311 313 314 314 315 317 316 321 327 326 324 320 315 316 314 312 320 333 331 324 322 322 318 317 316 317 319 322 324 327 326 322 320
315 314 314 314 313 315 317 315 314 313 312 313 315 316 315 312 310 312 314 313 313 314 314 314 314 314 314 313 313 313 313 313 313 314 315 313 311 314 314 311 312 312 311 313 313 314 317 317 318 319 317 319 322 320 316 311 311 316 317 317 319 319 319 321 318 315 316 322 323 316 313 320 331 328 320 317 318 318 317 316 315 317 319 323 328 328 324 323
315 314 315 314 313 315 317 316 315 314 313 314 314 316 315 312 311 312 313 314 314 313 313 313 314 313 313 313 313 313 313 314 314 313 315 314 312 314 313 312 313 311 312 316 314 314 320 319 316 318 318 317 317 316 316 315 313 317 321 319 318 318 315 315 317 314 314 321 322 316 314 317 320 318 313 312 314 317 318 317 315 315 316 320 326 327 324 324
315 315 315 314 314 315 315 316 316 315 314 313 314 316 314 311 312 313 313 315 316 313 313 314 313 313 312 313 314 313 313 314 314 313 314 314 316 315 314 313 312 311 317 322 316 317 325 320 313 315 314 313 315 316 318 318 315 315 318 318 315 314 313 317 322 318 315 319 318 314 313 312 314 317 316 316 318 319 320 318 315 314 315 317 322 325 323 321
315 315 313 314 315 315 315 316 316 314 313 313 314 315 313 312 313 312 313 316 316 313 313 313 312 313 312 313 313 313 313 314 314 314 313 315 318 316 313 313 312 314 320 320 314 318 325 319 313 314 312 314 323 324 318 316 315 313 315 316 315 315 315 317 318 315 316 318 314 313 314 312 315 321 321 322 323 321 321 321 318 316 317 318 320 322 320 318
314 315 313 313 315 314 314 315 314 313 313 313 314 315 313 313 312 311 314 317 314 312 313 313 313 313 312 313 313 313 313 314 314 314 314 315 316 314 312 312 312 315 318 315 312 318 322 317 314 313 313 317 325 325 318 315 315 314 314 315 315 316 316 315 314 314 316 316 312 314 318 315 316 318 318 320 322 318 316 315 314 314 316 319 321 322 321 321
314 314 312 313 314 314 314 314 313 313 312 312 315 315 313 313 312 313 317 316 313 312 313 313 313 313 313 313 313 313 313 314 313 313 313 314 315 313 312 312 311 312 314 313 313 316 317 318 317 316 316 318 320 319 318 316 315 314 315 315 314 315 316 314 313 313 314 315 312 314 318 316 315 315 316 318 317 314 313 313 313 315 318 321 324 325 322 322
314 314 312 313 313 313 315 314 313 314 313 312 315 315 313 313 313 315 318 315 311 312 313 313 313 312 312 313 313 313 313 313 314 313 313 313 314 313 313 314 314 312 312 311 311 312 314 317 317 317 317 317 317 316 315 315 316 315 316 315 313 314 313 312 313 312 312 313 313 313 315 314 313 315 316 315 313 311 314 317 318 317 318 320 323 323 321 320
310 311 311 313 313 313 315 314 312 313 313 312 314 315 314 313 312 315 317 316 313 313 313 313 313 313 312 313 313 312 313 314 314 312 313 314 314 313 313 314 314 312 312 313 313 313 315 315 313 315 318 316 315 316 314 313 314 315 316 315 312 313 312 312 313 314 313 313 313 314 313 311 313 317 315 313 314 315 316 319 319 317 316 317 323 323 320 318
308 311 312 314 314 314 314 313 312 313 313 311 312 313 314 314 314 315 316 317 318 316 314 313 312 312 312 313 313 313 314 315 313 312 313 313 313 314 314 313 313 313 313 315 316 316 317 317 314 315 318 315 314 315 315 314 314 314 315 314 311 311 312 311 312 314 313 312 312 313 312 313 317 319 316 314 317 318 318 319 318 318 317 318 320 321 319 316
Wind_Speed
21 23 29 34 30 26 28 36 44 46 47 46 44 44 42 41 39 37 37 35 32 32 30 28 26 24 22 20 18 17 15 15 15 15 13 15 20 16 11 12 12 10 11 12 10 10 8 6 6 8 10 6 4 5 3 2 1 3 2 3 2 3 4 4 6 6 4 5 7 6 5 8 7 3 2 4 7 4 4 5 2 5 5 4 5 21 35 32
22 23 27 34 33 27 27 31 40 45 46 46 44 43 44 43 42 38 37 35 33 32 31 29 26 24 22 20 18 17 15 15 13 13 17 16 16 18 14 13 12 10 11 12 12 11 8 4 6 9 6 2 1 4 5 2 1 2 3 2 4 5 5 5 5 5 3 6 8 7 6 7 8 6 4 4 3 3 6 4 4 5 7 5 12 27 31 30
22 23 25 33 37 33 29 30 36 44 45 45 45 45 44 44 43 41 38 36 34 33 32 29 27 24 22 21 18 18 15 10 7 10 21 19 14 17 16 14 12 11 12 12 13 11 10 9 8 8 4 2 2 3 5 2 1 1 3 2 5 5 4 4 4 5 5 5 10 8 5 6 7 5 4 6 6 4 6 4 1 4 4 7 13 24 27 27
21 23 24 29 37 38 33 32 34 41 46 45 46 46 45 44 43 42 39 37 35 33 33 30 28 25 23 22 19 19 13 4 3 14 23 22 17 15 16 15 13 14 14 12 15 14 16 16 11 7 3 3 4 4 2 2 1 1 3 4 5 3 2 5 3 5 6 4 9 9 6 6 6 3 4 9 7 3 6 8 7 9 11 10 11 19 24 24
21 22 23 27 34 37 34 33 33 37 46 46 46 47 45 44 42 42 40 39 37 34 34 32 29 27 24 23 20 18 11 1 6 15 23 23 22 18 15 16 14 15 16 15 18 18 18 15 10 6 4 2 5 4 1 2 3 2 3 5 6 3 2 7 4 4 3 2 5 9 8 7 5 2 6 12 9 6 7 8 9 13 15 15 16 19 21 21
23 23 23 25 31 37 36 34 33 36 44 45 46 48 45 45 43 42 41 39 39 36 34 34 31 28 25 23 21 18 10 2 1 8 20 24 24 22 19 17 16 18 18 20 21 18 13 10 7 5 3 3 3 3 3 5 4 2 4 4 5 3 2 5 4 4 2 5 7 8 7 6 7 3 6 11 9 6 6 8 11 14 19 22 22 21 18 18
24 24 25 24 28 37 38 36 35 39 45 46 46 47 46 46 44 42 41 40 39 38 36 35 33 30 26 24 20 13 7 5 1 5 12 21 24 25 23 20 20 22 22 23 21 13 9 7 5 6 5 3 2 4 5 10 8 3 4 5 4 4 4 4 4 5 2 6 7 5 5 8 9 5 4 7 8 5 4 9 12 15 19 21 19 18 19 21
24 25 26 24 27 34 38 38 35 37 46 50 47 47 46 45 45 43 41 40 39 39 38 36 34 31 30 26 15 5 5 8 8 4 7 17 26 27 27 24 24 26 26 27 23 15 9 9 8 5 4 3 2 2 6 11 10 3 4 5 4 2 3 4 4 5 3 3 2 5 5 6 7 4 5 8 8 5 2 8 11 12 15 16 15 15 17 19
24 25 26 26 28 31 36 39 36 34 40 50 49 47 46 45 45 43 41 40 39 40 39 37 35 33 32 24 10 3 9 13 12 4 5 17 27 30 29 27 29 27 26 26 26 22 11 7 8 5 5 4 3 3 6 5 5 3 5 7 5 4 4 2 2 5 4 0 2 6 3 1 1 0 4 7 7 3 3 9 11 12 12 12 12 14 16 17
27 26 27 28 29 29 32 37 37 34 35 45 50 47 46 45 44 43 41 40 39 39 39 38 36 34 31 20 8 5 11 16 15 6 6 17 28 32 29 29 31 28 23 19 22 22 12 9 10 8 7 5 3 4 6 4 4 7 10 8 5 5 4 1 1 4 4 2 2 6 2 3 4 2 4 6 4 4 7 10 10 12 13 13 11 12 17 18
29 28 28 29 30 29 29 35 39 39 38 42 50 48 46 45 44 43 41 40 39 39 39 38 38 36 30 18 9 7 6 13 18 12 10 17 29 33 31 31 31 28 23 16 19 21 15 18 18 10 5 5 5 2 2 4 6 8 9 7 5 5 5 2 2 3 2 1 2 7 3 4 5 1 6 6 5 6 9 11 10 12 12 12 12 11 14 17
31 31 30 30 31 30 29 34 39 41 41 41 49 49 47 46 44 43 42 41 39 38 39 39 39 37 26 12 10 10 5 8 15 16 14 16 26 32 31 31 30 29 25 16 18 18 16 25 21 8 4 8 8 1 1 4 5 6 5 6 6 6 4 4 2 2 1 1 2 6 2 4 3 5 6 4 6 6 8 11 11 11 10 9 10 9 10 15
33 33 33 32 31 31 31 34 37 40 42 40 47 51 48 48 46 45 43 42 40 39 39 40 39 34 21 7 10 13 7 5 13 17 18 20 24 28 29 29 25 25 26 21 21 17 20 29 19 7 5 9 6 3 3 1 5 5 3 3 4 6 4 5 2 1 3 1 2 3 2 5 9 10 6 3 7 7 7 9 10 9 8 8 9 8 9 13
36 35 36 35 33 32 33 35 36 40 43 41 44 51 49 49 48 46 44 42 41 39 39 41 38 28 15 4 6 14 10 6 15 20 23 26 25 23 26 27 19 18 20 17 20 20 23 27 17 9 4 5 4 2 3 1 3 3 2 3 2 0 4 6 1 4 4 1 2 4 3 6 8 10 7 5 8 9 8 8 8 8 7 7 8 9 8 11
39 37 38 38 37 36 35 36 36 39 43 43 46 53 50 49 49 46 45 43 41 39 40 38 32 20 8 2 4 14 14 8 17 24 24 29 28 21 24 26 15 13 14 10 17 22 23 22 13 7 3 2 4 3 2 1 2 2 2 3 1 3 4 6 2 6 6 1 2 5 3 6 7 8 6 6 8 9 9 8 8 8 8 8 8 9 8 10
41 40 40 41 40 38 37 37 37 38 41 41 45 54 53 51 49 46 45 42 40 42 39 29 23 17 6 3 6 13 14 10 18 24 24 29 30 24 25 23 12 11 10 8 17 21 19 16 6 3 3 2 3 4 3 0 3 2 2 3 2 4 3 4 2 5 5 2 1 2 3 4 4 7 5 4 9 9 9 9 9 9 9 9 8 8 8 8
44 44 43 43 42 41 39 38 37 40 43 41 44 52 53 53 52 48 45 42 41 39 31 20 17 12 2 3 8 12 13 11 18 24 25 26 29 28 26 17 8 11 11 10 17 15 10 7 2 1 3 2 3 4 4 5 4 2 1 3 3 4 3 2 3 4 4 4 3 4 3 6 6 6 5 3 7 8 9 10 10 9 8 8 8 7 8 8
47 47 46 45 44 42 40 39 39 43 45 44 50 55 51 53 55 48 43 40 34 28 19 12 14 8 3 9 9 11 17 17 20 26 23 22 27 31 25 15 9 11 11 7 8 7 2 2 2 3 3 3 4 5 6 6 5 3 2 3 3 3 3 4 3 3 5 4 5 5 4 10 10 7 5 4 4 7 9 8 8 9 8 8 8 8 8 9
50 50 49 47 46 44 42 41 41 44 45 42 51 60 51 46 46 40 40 37 23 14 10 9 13 7 5 13 11 14 24 24 22 22 21 21 25 25 19 15 11 9 9 5 3 4 3 3 3 5 5 6 7 8 7 4 6 6 4 4 4 4 4 4 4 4 5 5 5 7 7 10 11 8 6 5 3 5 7 5 6 7 7 7 7 8 9 9
51 52 52 49 47 45 43 43 43 47 47 42 44 46 34 23 18 15 20 23 15 9 8 14 18 4 4 11 12 18 23 20 15 15 21 26 26 21 10 9 8 4 6 8 6 4 4 5 5 6 7 8 8 7 6 5 6 5 2 3 5 5 4 4 3 4 2 5 5 7 8 10 10 8 7 4 2 4 7 8 8 7 7 8 9 10 11 11
49 54 54 52 50 47 45 45 45 48 50 52 43 22 13 13 8 11 15 11 15 12 6 17 21 1 4 16 22 26 17 8 6 9 21 26 24 18 4 5 8 3 5 8 6 3 4 6 7 7 7 8 8 6 6 7 10 7 4 4 5 4 6 5 2 4 0 4 4 2 5 10 9 9 6 2 4 7 10 10 9 9 9 8 9 11 11 10
48 55 58 56 53 49 47 46 48 51 50 52 41 15 11 16 11 19 21 11 15 10 4 18 18 4 5 21 30 32 16 5 5 5 18 22 16 11 4 6 10 6 5 6 6 4 4 6 7 8 7 8 8 7 7 8 11 7 4 4 4 3 4 4 2 3 1 2 4 1 3 9 9 9 6 4 7 8 10 12 11 11 10 9 11 11 10 9
52 57 61 58 55 53 50 49 51 53 48 40 28 17 17 15 14 20 15 9 11 3 3 18 16 2 4 14 26 32 17 11 12 9 19 20 10 8 8 8 9 7 7 7 8 7 5 5 8 9 7 8 8 7 8 7 9 6 4 4 5 3 2 3 3 1 1 1 2 2 1 6 7 6 6 7 9 8 9 10 10 9 10 12 12 10 11 12
61 63 63 61 58 54 52 53 54 51 49 41 25 22 24 18 25 30 13 8 7 2 1 17 13 4 6 9 21 25 12 10 13 12 21 19 9 7 10 11 9 8 8 9 10 9 6 6 8 9 7 9 8 7 9 7 7 6 5 6 5 4 4 3 2 2 1 2 2 3 4 6 5 4 7 7 6 7 8 7 8 8 10 10 8 8 11 13
70 70 66 64 59 57 57 51 51 53 47 39 27 24 28 26 34 34 13 6 5 3 1 11 5 4 11 10 15 15 7 4 6 13 20 18 13 9 6 7 7 10 11 11 10 7 7 6 8 9 6 8 8 8 9 7 6 6 5 8 8 7 4 2 3 4 3 2 2 2 0 5 5 4 9 6 3 7 6 5 9 9 9 9 8 10 11 11
76 77 69 67 61 62 53 31 43 58 37 25 30 31 30 35 38 26 9 4 4 3 7 11 5 8 15 11 10 10 8 3 4 15 21 18 15 9 6 5 2 7 11 8 5 4 5 3 7 10 8 9 8 7 8 8 6 5 5 8 8 5 4 5 5 3 3 3 2 2 4 5 6 4 8 4 3 9 7 6 10 9 9 9 10 12 11 10
79 79 72 68 64 62 37 15 41 53 23 18 38 40 36 42 36 12 3 4 5 5 8 9 5 9 13 12 14 13 7 6 6 12 18 18 13 5 7 8 3 5 6 5 3 3 5 6 6 9 9 8 8 7 7 8 7 5 5 6 7 7 6 7 7 3 2 2 3 3 3 3 4 6 6 2 3 9 8 8 11 10 11 11 12 13 11 11
79 78 72 67 67 64 39 24 39 34 23 36 47 46 43 41 25 6 1 7 6 5 8 7 6 9 9 7 12 7 5 12 12 9 12 14 9 2 6 10 7 9 6 7 7 2 4 9 9 10 7 6 7 8 8 9 6 7 5 6 6 6 6 6 6 2 1 1 2 4 2 3 5 6 5 2 2 7 9 10 11 11 12 12 12 13 12 11
78 74 72 68 67 66 48 38 40 31 39 54 51 50 47 29 10 0 4 6 4 4 9 9 7 9 9 4 4 1 5 12 9 6 7 7 3 3 5 8 8 12 5 5 8 3 2 7 9 11 8 6 8 8 9 11 6 5 5 6 4 4 4 4 5 3 3 1 5 6 3 3 5 6 4 2 3 6 8 9 9 10 11 10 11 13 12 10
78 71 72 71 62 58 45 35 40 43 51 58 54 53 40 17 5 4 7 5 5 5 7 9 9 13 15 9 2 4 8 8 5 8 8 5 2 3 2 3 6 9 2 2 6 4 1 1 2 6 5 6 7 4 5 9 7 5 7 6 6 5 4 3 2 4 2 3 6 6 4 2 4 5 4 4 5 6 7 7 8 8 8 8 9 10 10 8
76 71 74 71 57 52 34 17 32 49 53 59 59 46 24 7 3 6 7 5 6 6 7 10 12 16 20 16 8 8 9 7 8 14 10 6 4 2 4 3 3 5 3 3 4 2 3 3 1 2 2 3 5 3 2 2 4 5 4 5 4 3 4 3 4 3 2 6 5 4 2 3 5 5 4 6 6 6 7 7 8 9 9 8 8 8 8 7
74 72 76 68 56 52 32 21 43 57 57 61 52 26 10 6 3 2 6 7 7 9 11 15 17 19 22 19 12 10 9 7 11 16 13 10 8 7 8 8 6 6 5 7 5 1 2 1 2 1 1 3 7 4 1 2 2 4 4 6 5 0 1 1 2 1 4 5 3 3 1 2 6 6 8 10 10 10 9 8 8 9 8 8 8 7 6 6
72 72 72 64 55 47 39 45 60 62 62 58 34 10 6 8 5 4 8 8 8 11 14 18 20 23 25 19 12 10 8 7 12 13 13 12 9 7 6 6 7 7 5 6 5 4 1 5 3 1 1 1 6 6 3 2 2 4 6 6 5 3 3 5 3 1 4 4 3 3 1 3 4 5 11 14 13 12 8 7 9 9 9 9 8 6 5 5
71 72 65 58 50 41 45 58 63 65 60 41 18 8 10 8 5 9 10 7 8 14 15 17 20 20 19 13 11 12 8 7 12 12 10 10 9 9 7 8 8 5 5 6 4 6 6 4 3 4 2 1 4 5 6 7 4 4 5 5 5 5 4 5 3 3 4 3 3 3 1 3 3 3 9 10 10 10 7 6 7 7 8 7 6 6 5 5
69 69 57 47 41 40 53 60 63 67 49 22 10 8 9 7 5 9 9 7 9 13 14 16 19 17 12 8 8 9 4 5 12 11 10 11 11 12 10 10 11 6 7 8 3 5 8 4 3 3 1 3 4 3 3 8 5 4 3 4 4 6 5 3 3 5 4 1 2 2 3 4 4 6 9 6 7 8 7 7 6 6 6 5 5 6 5 5
60 55 42 35 35 45 60 59 63 62 36 15 10 6 6 6 7 11 11 12 15 19 22 18 15 14 11 7 7 7 3 5 11 8 7 11 10 13 11 7 9 8 9 8 3 3 6 1 4 3 1 1 4 4 1 3 5 2 3 4 6 4 6 4 2 1 3 2 3 2 3 4 3 6 9 6 6 8 7 6 6 6 5 4 5 7 6 6
44 36 24 25 38 51 60 59 60 50 24 13 12 8 8 5 5 9 10 15 17 21 25 18 14 16 13 10 9 10 7 7 10 7 6 7 7 11 13 7 8 11 10 7 3 2 6 1 4 1 2 2 1 3 1 1 4 5 4 6 3 2 3 3 1 1 1 3 4 1 3 4 2 3 6 7 7 8 7 6 6 6 5 5 7 7 7 7
29 24 12 20 46 54 56 61 57 33 12 12 12 8 8 4 3 7 10 16 18 19 19 13 13 17 17 16 14 15 14 11 11 10 8 8 5 10 16 9 7 11 10 9 5 2 5 3 4 1 2 3 3 3 1 2 2 4 4 3 3 3 2 1 3 2 2 4 4 2 3 3 3 4 5 6 6 8 7 5 5 7 8 7 7 8 8 7
21 15 5 25 53 55 56 58 41 18 8 11 11 6 6 5 5 11 15 19 20 18 17 14 12 13 15 17 17 19 19 15 15 11 9 10 6 8 17 10 5 10 11 10 7 3 4 4 2 3 2 1 3 2 5 2 2 2 1 0 2 2 4 3 3 3 3 4 3 3 3 3 6 6 5 7 9 9 7 5 6 8 9 8 7 8 7 7
12 8 5 32 57 56 59 46 21 12 9 9 9 5 5 5 7 15 19 19 17 12 13 17 16 13 15 16 14 15 13 12 16 12 7 10 4 4 13 12 8 10 8 7 7 4 3 4 3 2 3 1 2 3 7 7 3 2 2 3 3 1 2 2 1 3 4 3 3 2 3 5 6 5 8 10 10 8 6 6 7 7 7 7 8 7 7 7
8 7 6 35 60 58 49 26 9 11 8 7 10 3 2 5 8 16 19 17 12 3 5 16 17 13 15 15 14 13 10 8 13 9 4 8 7 3 9 12 12 11 8 7 7 5 2 4 5 3 0 3 4 4 5 7 6 5 5 7 7 4 4 3 4 1 2 2 4 3 5 7 5 4 7 9 8 7 6 6 6 7 7 7 7 7 7 6
5 6 10 36 61 55 31 11 8 10 6 6 7 1 3 7 11 17 18 15 10 4 5 10 11 11 11 10 11 13 10 8 12 10 4 7 9 4 6 11 14 12 9 7 5 4 3 5 5 2 3 5 5 4 2 4 2 2 4 5 5 4 5 6 6 3 1 2 2 2 4 7 6 5 7 7 6 5 5 5 5 7 7 7 7 6 5 5
3 7 17 41 60 46 18 8 9 7 5 4 1 1 4 7 12 16 15 15 11 7 8 8 10 12 9 8 10 11 10 8 10 9 3 5 7 4 10 16 15 13 9 6 6 4 4 5 4 1 3 3 5 5 2 2 2 1 4 2 4 4 4 5 5 4 2 3 2 1 5 7 6 4 5 6 5 4 4 5 6 7 7 6 6 5 4 4
4 6 12 35 53 40 15 10 12 8 7 6 2 3 2 4 13 17 17 16 11 11 13 12 14 15 11 12 13 14 13 8 7 6 4 5 4 3 13 20 17 15 9 6 9 6 2 3 4 4 2 3 4 4 3 2 2 2 3 2 4 5 6 4 2 3 2 6 6 4 7 7 5 4 4 5 4 5 7 5 6 6 6 6 5 4 3 2
8 5 5 18 29 24 10 7 13 13 13 14 12 8 4 5 10 16 19 13 6 10 13 10 13 14 11 13 13 14 14 8 6 5 2 5 3 1 13 21 19 15 9 7 11 7 4 5 5 6 6 6 7 6 5 4 3 1 3 6 8 9 9 6 3 4 6 6 7 8 8 6 3 7 6 4 1 4 8 6 5 6 6 5 5 4 3 3
9 4 5 9 9 9 4 1 9 13 13 16 13 7 9 9 6 10 15 8 3 9 9 6 12 12 10 15 13 12 14 7 6 7 5 7 5 1 7 17 19 16 11 14 16 9 4 4 7 10 11 11 9 6 5 10 8 9 10 10 9 8 8 6 5 6 7 3 5 11 6 1 2 6 6 5 3 5 7 6 5 5 5 5 5 4 4 3
7 4 6 9 6 7 3 3 8 10 11 15 9 5 13 13 8 8 7 4 6 12 9 7 13 13 14 19 15 13 15 7 5 11 11 9 5 2 2 8 13 14 12 15 14 8 5 4 9 9 7 7 6 5 7 13 14 16 13 11 10 8 8 8 8 10 6 5 9 10 5 4 6 7 7 7 6 6 6 6 6 5 5 5 3 2 3 4
3 6 8 8 8 10 6 8 15 13 13 14 4 4 13 15 15 13 4 2 10 14 10 9 16 19 21 22 16 12 13 9 6 11 10 6 5 6 5 2 3 6 10 11 9 6 6 5 6 7 4 4 4 7 10 12 11 11 12 13 12 11 12 14 16 12 9 8 15 6 8 9 10 7 9 9 7 6 5 6 5 4 5 4 4 3 4 5
2 6 6 2 4 10 9 14 21 19 17 14 4 5 14 17 18 13 3 6 12 14 14 15 19 23 24 22 17 14 15 13 11 10 9 9 10 10 8 4 0 1 5 8 5 2 4 4 3 6 4 3 4 8 11 11 8 7 10 13 14 16 19 20 20 14 10 13 14 1 2 11 7 7 11 9 5 4 4 5 4 4 5 5 6 6 7 7
4 8 7 3 4 6 7 11 17 17 14 12 6 7 14 19 21 12 4 11 18 16 17 21 22 22 24 23 18 18 20 18 16 13 10 11 11 9 8 6 4 2 4 7 5 1 2 4 3 6 4 3 4 5 6 9 9 8 10 13 15 17 18 16 15 9 5 12 14 7 10 12 5 8 10 6 2 1 3 7 6 6 5 6 7 7 7 8
2 4 6 8 7 8 10 11 14 14 12 11 9 9 13 20 22 14 4 6 15 16 16 23 24 18 18 20 19 19 20 18 19 20 17 17 15 10 7 6 8 8 5 5 5 2 3 3 2 6 5 5 3 6 5 5 5 5 11 16 17 15 12 11 10 8 10 14 15 11 11 9 5 7 5 1 1 3 7 9 7 6 4 6 7 8 8 9
2 5 5 6 7 8 12 12 13 13 12 11 8 5 9 16 17 15 7 1 3 10 12 19 23 16 14 18 19 17 15 14 15 14 13 14 13 8 7 11 16 16 11 8 5 4 7 6 3 6 8 5 2 7 8 7 4 6 12 15 17 14 11 10 8 11 14 13 11 11 10 7 5 5 4 3 5 9 10 8 7 7 5 6 7 8 9 10
Wind_Direction
237 239 235 230 232 241 235 216 204 201 199 198 198 197 198 199 196 193 191 191 189 185 184 186 186 189 189 188 187 186 185 180 175 177 190 214 214 210 204 200 196 183 171 166 150 127 99 81 109 53 48 71 3 316 317 290 100 61 95 131 206 191 201 192 180 204 176 182 196 198 188 142 146 172 155 62 51 84 74 23 5 7 29 162 163 155 160 162
238 238 237 229 228 235 238 227 209 202 201 199 199 198 197 198 197 195 191 190 189 186 183 183 184 186 186 185 183 181 177 175 174 186 206 213 208 206 200 195 196 194 188 169 151 137 109 81 104 75 52 53 350 323 328 296 116 101 132 143 217 199 212 207 195 223 196 185 174 169 186 156 156 164 145 124 135 133 98 20 357 47 46 88 136 149 157 163
237 235 237 231 230 233 237 239 221 206 203 201 199 198 197 197 196 194 192 190 189 186 182 181 182 182 182 180 177 175 168 161 169 216 216 208 205 204 196 193 192 199 204 181 161 145 130 134 122 92 58 34 41 336 331 300 185 165 146 175 237 214 244 246 207 236 248 196 158 161 184 160 166 165 136 137 158 173 151 167 137 117 120 117 139 150 156 165
235 232 234 233 232 233 234 241 234 213 203 201 198 198 198 196 195 193 191 190 189 186 183 180 179 179 178 174 171 168 152 124 222 230 220 208 205 201 191 191 186 195 200 177 160 139 124 124 104 73 73 45 357 337 328 306 308 237 161 195 229 183 264 270 243 271 274 207 166 158 143 156 184 164 129 134 139 223 212 199 179 160 156 144 149 155 159 167
235 234 232 230 228 230 231 233 238 220 203 200 199 197 196 195 195 192 190 189 188 187 183 179 177 176 172 170 168 158 134 90 237 225 222 212 205 201 193 191 186 188 183 164 154 132 118 117 99 58 54 58 358 344 296 342 4 296 234 211 222 156 235 276 288 301 294 135 143 146 148 164 168 121 151 155 163 215 211 202 183 160 157 158 160 161 164 170
236 237 233 230 226 227 231 228 234 228 207 198 198 197 195 194 194 191 189 188 187 187 183 179 176 173 170 168 164 157 152 205 237 203 215 211 204 202 195 189 182 179 172 158 151 138 121 110 105 99 79 68 33 313 302 352 6 307 284 265 246 189 205 289 315 326 354 135 159 165 167 143 132 155 181 176 191 220 195 179 174 166 164 161 159 162 167 173
235 237 234 231 227 225 229 227 230 230 210 199 197 196 195 193 192 191 189 187 187 186 183 179 175 171 167 162 159 166 187 230 194 129 192 202 203 201 191 183 173 170 163 149 144 146 139 124 127 126 119 96 138 239 336 348 328 271 267 290 282 196 197 281 310 336 34 174 196 160 139 144 158 168 161 197 227 248 207 164 164 165 160 157 158 166 172 177
233 235 235 230 227 223 225 228 232 230 210 197 195 194 194 192 190 190 188 186 186 185 184 179 173 169 165 159 153 172 217 225 212 150 155 187 195 190 181 175 171 168 161 153 151 155 145 134 146 131 122 130 159 191 26 356 319 264 243 283 301 232 234 286 316 346 38 186 218 119 133 166 177 153 151 211 237 251 184 144 153 152 152 159 167 173 176 179
235 233 235 230 229 225 223 228 234 235 213 195 192 192 192 191 188 188 187 185 185 184 182 178 173 169 166 158 137 168 214 213 203 184 160 180 185 182 178 173 170 168 161 160 161 157 150 145 161 154 138 133 137 137 76 30 301 285 305 299 288 272 268 305 335 335 6 23 150 129 124 249 252 77 178 214 219 213 116 138 151 150 159 171 174 178 179 182
241 234 235 232 231 229 225 228 230 235 224 197 188 191 190 189 187 185 185 184 184 183 180 177 173 166 162 152 137 189 220 214 204 190 161 178 180 177 180 176 171 168 159 161 164 160 161 160 155 140 121 107 149 154 115 135 247 293 310 297 274 281 287 22 98 299 336 4 150 134 137 292 323 358 211 227 200 134 113 141 158 158 170 178 178 184 182 185
243 237 236 233 233 232 227 229 228 231 231 204 187 189 188 187 186 183 184 183 183 182 178 176 171 166 162 155 170 200 209 208 209 204 172 175 178 179 182 179 175 170 160 160 172 174 167 149 139 127 118 123 155 162 121 195 243 286 307 306 304 331 316 330 117 274 324 54 142 121 106 317 345 341 222 220 168 142 133 147 165 169 178 181 181 186 186 192
244 238 236 234 232 233 226 225 226 226 231 212 189 187 187 185 186 183 181 181 181 181 177 175 171 167 161 160 197 197 173 196 209 207 189 179 181 184 184 178 178 176 167 163 178 184 164 147 138 121 144 146 150 151 286 244 271 280 296 303 311 353 321 260 178 254 162 169 205 126 90 310 269 231 237 199 151 149 146 155 171 178 183 185 185 188 193 198
243 238 235 234 230 230 227 223 222 222 228 218 191 185 186 185 185 181 179 179 179 180 176 172 170 165 158 173 215 193 186 203 200 196 184 181 181 181 181 175 175 181 179 175 181 185 165 156 144 110 138 141 154 174 135 215 286 276 263 246 296 355 314 258 204 161 150 202 288 137 187 263 242 237 243 187 148 140 151 169 178 182 185 186 188 193 201 201
243 238 233 232 229 226 228 224 221 219 223 224 198 183 184 185 182 178 177 177 176 176 174 170 167 165 162 182 215 199 209 210 188 181 173 174 168 166 175 173 169 180 184 181 179 175 167 164 141 107 146 136 140 174 114 127 261 268 268 233 246 9 279 285 239 148 159 219 28 115 202 257 255 251 240 190 159 154 167 184 187 189 192 190 193 196 204 206
242 237 231 230 227 224 227 223 220 217 218 224 203 183 181 182 179 175 175 173 172 174 172 169 166 160 166 234 201 197 201 190 184 181 176 172 160 155 171 170 163 171 176 176 170 165 162 162 140 113 170 128 116 146 109 11 291 256 232 260 261 178 261 303 218 165 163 225 53 119 208 268 270 269 255 189 171 171 176 189 194 195 199 196 200 201 206 213
241 236 229 227 225 222 224 221 219 214 213 218 200 182 181 180 175 172 172 169 168 172 168 167 172 160 160 220 166 179 182 178 188 183 177 175 165 159 164 160 149 151 162 164 161 161 156 154 145 105 135 137 139 141 133 303 307 292 207 237 248 185 241 303 249 204 173 152 36 147 205 264 273 289 294 188 179 182 180 193 199 198 206 202 202 206 206 212
240 235 228 224 222 220 220 218 216 209 209 213 196 180 177 174 170 169 168 166 164 166 163 161 169 160 135 159 155 176 178 172 183 175 169 175 171 160 154 149 138 138 134 136 151 157 150 144 160 122 115 148 159 140 167 209 229 277 243 222 243 193 200 252 266 244 178 165 205 187 213 248 264 298 313 206 183 185 189 198 202 202 207 206 206 211 209 208
238 232 226 222 220 219 219 217 214 208 207 209 193 179 172 165 163 162 156 152 148 148 155 156 156 160 217 189 177 173 171 167 170 168 165 171 168 159 153 146 143 137 119 114 143 149 131 99 129 145 152 184 183 175 187 198 188 201 208 202 249 237 206 224 243 217 167 174 204 181 227 256 264 286 291 254 193 192 208 207 209 213 209 210 209 211 214 211
234 228 222 219 217 216 217 215 213 207 202 199 181 168 165 159 156 154 146 141 137 141 157 170 170 177 191 184 175 155 165 168 162 162 161 159 158 151 143 140 139 133 128 134 151 146 123 91 126 165 184 191 194 195 194 192 170 182 202 191 210 228 232 229 242 243 168 160 208 192 214 245 250 259 258 253 202 196 237 243 228 225 215 217 214 215 218 214
228 224 219 216 215 215 215 213 212 203 193 186 171 157 158 160 147 144 142 144 160 162 147 173 181 177 84 148 142 138 154 158 152 160 162 159 150 135 119 130 126 108 144 153 158 163 134 134 181 190 187 192 194 191 188 219 219 206 223 245 231 219 248 253 248 286 166 154 224 211 219 246 248 256 256 243 201 214 244 245 234 227 220 218 216 220 218 216
224 219 216 214 212 213 213 211 209 200 188 181 177 167 161 162 146 145 146 158 179 161 129 175 182 241 95 143 139 137 136 129 128 155 162 159 147 138 142 147 137 158 171 148 136 132 139 168 200 190 183 189 190 179 170 218 244 242 236 267 273 229 243 261 239 292 296 166 252 245 230 256 258 259 264 175 181 226 230 226 230 223 220 223 220 225 224 227
229 217 213 211 211 213 211 210 206 195 187 181 179 187 169 156 161 158 149 154 176 161 96 169 180 314 124 147 148 145 133 107 121 156 164 158 152 157 174 155 153 171 169 139 123 133 176 201 200 185 181 173 177 179 171 215 243 240 228 240 263 248 248 268 251 290 6 179 257 291 213 254 262 257 252 184 195 233 227 217 224 218 216 221 220 224 226 233
232 215 210 208 208 210 208 208 203 190 186 185 178 178 168 152 158 158 134 112 152 152 66 164 180 289 127 150 154 151 144 152 160 185 175 160 163 169 149 155 163 156 161 168 160 159 186 214 196 186 177 163 174 187 181 218 244 232 207 212 249 260 218 248 244 243 52 124 188 125 212 270 276 280 268 224 212 238 239 223 228 224 219 221 221 221 217 221
226 211 206 205 205 207 205 204 197 185 183 186 184 176 167 152 153 152 118 79 136 346 128 168 174 166 171 168 162 160 156 161 160 175 176 164 156 158 152 158 157 158 179 180 166 166 189 206 182 171 178 178 181 193 191 210 239 237 207 198 239 249 226 239 204 139 39 7 106 99 13 303 270 268 267 246 220 243 251 238 240 240 235 237 247 243 223 219
216 204 202 201 202 202 201 199 190 182 182 183 183 172 161 156 155 149 120 79 129 28 130 171 173 192 187 171 168 166 129 137 163 162 172 170 153 145 154 161 159 174 182 167 155 170 207 205 159 155 180 187 187 202 198 194 220 251 225 201 218 229 226 201 136 98 65 304 270 135 30 293 293 264 252 259 266 258 251 236 242 242 240 241 248 244 232 227
203 198 197 196 199 196 194 200 183 177 178 179 175 165 154 154 156 150 115 87 136 132 160 164 169 192 182 168 161 141 115 168 184 154 164 172 165 151 151 164 160 174 170 155 148 182 205 176 150 166 179 182 195 216 204 183 195 248 241 204 204 195 150 147 160 119 130 227 280 110 173 252 312 289 251 265 275 262 258 247 249 244 240 235 230 235 230 226
193 191 192 192 194 189 187 193 173 171 170 170 165 157 150 155 164 173 76 121 166 153 148 149 161 177 173 174 162 144 150 166 133 157 170 171 173 154 155 169 146 159 161 140 170 219 165 148 166 175 172 180 197 217 205 173 175 236 243 182 166 159 162 173 171 158 183 217 341 28 136 209 286 267 260 298 266 274 278 260 256 246 238 233 230 235 230 223
184 185 187 189 189 185 186 177 165 166 168 161 155 150 150 156 168 208 121 156 166 137 132 143 173 164 150 175 171 151 150 142 137 181 181 168 176 113 159 178 156 158 166 159 182 246 146 166 186 174 169 189 197 212 197 163 180 238 211 159 155 161 170 165 153 148 42 79 292 297 138 180 266 274 291 330 249 277 279 256 252 245 239 235 233 237 234 229
178 180 183 184 184 184 186 173 164 170 165 155 147 148 151 149 144 147 189 172 139 129 136 140 168 160 126 124 185 196 142 144 148 165 153 169 199 50 158 177 144 152 172 167 176 213 182 187 185 168 178 196 195 212 190 166 197 224 150 117 77 83 87 101 129 117 57 66 237 239 192 194 266 280 292 307 250 257 263 260 255 246 243 237 235 237 234 231
174 177 179 178 179 181 179 170 168 167 158 149 145 146 145 138 124 163 196 176 125 148 149 145 164 157 140 134 210 225 161 143 129 129 136 176 185 32 104 107 105 139 118 75 159 204 284 323 164 160 182 192 181 187 172 175 184 141 112 89 59 48 44 47 76 89 92 262 251 237 215 199 263 275 246 227 228 218 228 263 273 266 264 249 241 243 236 229
171 173 175 175 177 176 169 163 160 155 151 145 141 139 136 131 171 176 182 147 122 150 153 151 156 152 152 156 179 197 163 130 137 146 153 172 169 146 139 118 88 118 109 130 172 287 23 66 174 172 159 134 125 106 75 166 157 117 107 112 95 11 16 24 360 46 194 249 269 262 222 176 232 261 245 238 253 231 212 240 264 272 278 265 254 250 238 226
168 170 172 174 176 174 170 154 148 148 146 140 136 135 133 144 200 195 160 152 149 163 159 155 158 158 161 164 170 178 159 140 156 159 159 165 177 182 174 180 167 145 173 181 172 30 60 180 272 308 258 128 128 144 41 39 102 116 121 130 134 30 32 223 276 260 225 249 278 277 236 208 237 249 257 261 265 255 229 222 246 261 274 277 270 259 245 225
168 168 170 173 173 174 170 156 149 146 142 138 135 135 142 160 190 157 155 170 168 167 161 158 163 163 162 163 166 164 150 151 165 161 158 160 170 193 209 205 167 150 173 167 139 137 200 296 299 146 262 177 148 165 175 153 146 144 147 149 155 139 150 213 242 272 254 258 264 267 259 259 273 258 249 249 252 258 250 235 242 249 260 269 268 265 261 239
167 167 168 171 170 170 164 155 151 147 140 135 134 144 157 171 167 150 169 184 159 156 156 153 156 159 160 158 159 160 147 156 164 154 152 158 167 189 212 214 187 135 115 142 156 167 178 242 234 180 195 177 167 180 168 150 152 184 170 145 157 161 165 201 212 210 231 266 273 273 235 200 205 248 245 241 256 275 277 264 259 254 257 268 273 272 262 249
165 165 165 166 164 163 158 154 153 148 138 132 137 150 168 167 146 160 174 167 147 145 142 143 147 152 159 153 161 171 144 156 166 155 161 172 177 186 191 197 192 149 134 163 185 172 171 205 270 270 223 149 169 205 144 128 156 218 156 128 187 186 148 155 186 179 178 237 260 233 234 211 207 274 275 258 264 279 284 295 306 285 279 293 282 265 251 251
159 160 159 157 156 158 155 153 152 148 138 134 145 160 184 173 169 173 169 163 160 149 140 142 151 155 159 155 165 182 155 151 165 160 174 180 185 190 187 189 187 172 162 158 139 163 161 183 318 328 343 126 159 187 150 142 178 184 135 186 220 172 120 124 199 140 119 208 246 202 252 289 316 295 294 301 291 290 289 287 282 273 287 295 265 256 254 257
154 153 150 150 154 157 156 152 148 144 135 142 158 175 181 196 190 168 163 160 155 148 144 147 163 164 161 160 168 177 160 143 160 166 175 179 194 195 190 195 184 179 177 152 131 192 149 128 319 30 143 264 170 142 29 23 142 127 175 210 198 129 102 109 168 353 64 233 268 229 223 277 316 275 310 332 306 284 276 273 275 274 273 256 248 248 252 256
150 145 134 149 155 157 156 150 144 139 131 154 166 172 170 202 188 147 151 153 146 148 150 151 168 168 165 166 168 172 167 160 172 175 169 179 220 199 186 194 186 178 178 151 145 195 138 127 308 338 176 280 360 105 135 328 111 139 189 194 129 162 207 133 165 197 200 231 274 292 247 244 206 220 294 309 273 263 277 302 297 268 250 240 245 251 256 264
145 142 132 154 155 156 154 146 139 134 142 164 172 173 167 185 173 154 157 156 150 154 158 159 166 170 172 169 165 170 172 171 172 173 175 186 225 207 181 179 177 179 179 157 152 180 133 126 247 283 256 291 18 107 179 212 356 45 103 114 98 151 178 176 171 168 183 213 240 280 285 249 220 210 217 242 252 256 269 290 275 251 241 234 236 243 248 254
147 146 144 157 156 154 149 142 132 145 157 172 177 173 167 167 159 161 164 160 156 159 165 164 164 166 170 165 159 169 174 171 171 176 185 177 183 222 189 175 160 169 168 139 137 158 121 113 174 274 326 166 176 209 185 174 169 147 155 189 198 139 126 169 185 136 149 182 193 229 267 258 246 208 191 215 239 245 247 263 267 261 251 242 237 235 238 240
155 148 152 160 156 150 145 138 137 159 162 175 173 171 167 153 147 159 165 163 157 127 137 160 164 164 164 160 160 168 166 161 174 179 179 173 169 208 198 171 150 152 149 130 142 166 140 108 144 166 303 192 226 252 187 177 182 172 181 194 189 165 130 167 227 215 115 173 177 183 251 261 252 205 198 214 226 231 226 228 259 275 264 253 248 237 236 237
141 142 153 160 155 147 141 142 156 162 174 176 170 170 149 150 151 158 162 163 155 93 99 151 159 154 158 159 158 165 162 158 178 182 176 181 177 172 170 151 142 151 151 137 149 159 120 101 112 151 206 209 247 282 165 167 167 157 207 202 170 158 139 155 209 228 187 216 155 131 252 266 254 208 204 219 222 229 223 210 249 280 274 264 267 261 255 251
120 123 145 157 155 145 135 152 157 166 184 162 167 222 153 155 159 158 160 164 155 126 133 154 157 156 163 157 149 161 164 161 178 178 138 157 180 180 159 147 141 150 146 140 163 153 102 98 102 69 301 297 309 332 39 98 84 203 240 186 139 177 153 145 184 182 175 216 148 121 260 267 271 236 218 239 258 272 265 230 236 268 284 282 287 298 284 245
138 109 137 161 158 148 142 167 164 168 167 150 177 205 162 157 164 162 165 168 162 148 153 163 166 165 164 158 158 168 170 164 176 175 128 144 182 188 159 153 153 162 165 171 173 163 131 128 117 102 49 355 333 329 310 239 171 205 232 179 163 160 123 120 152 126 201 220 172 179 247 250 271 297 265 262 299 298 273 245 225 246 274 286 297 312 298 238
145 122 120 165 164 153 149 173 165 164 164 165 178 188 158 156 178 174 164 162 158 150 152 160 162 156 150 154 157 167 172 165 159 166 114 134 149 178 163 162 166 172 172 153 148 143 145 155 145 140 155 188 201 211 218 189 149 216 213 192 193 177 160 166 135 150 224 219 165 196 239 243 304 336 315 270 283 286 272 263 238 238 252 274 290 294 269 220
145 146 130 152 168 157 127 80 157 160 163 164 173 185 159 156 190 181 160 155 148 138 130 131 143 136 143 153 151 166 176 163 139 155 148 146 152 295 181 172 173 175 161 144 146 136 115 164 188 183 187 196 193 197 162 130 148 206 202 187 193 191 178 151 116 189 207 152 189 226 227 183 295 309 300 268 238 257 272 271 254 247 252 255 260 261 246 230
139 157 153 141 146 154 100 63 151 159 167 167 168 181 167 158 164 175 170 177 155 138 118 126 147 149 159 159 155 168 172 152 132 157 157 155 150 73 135 171 176 170 149 146 155 137 108 186 197 183 198 202 169 165 154 149 177 200 189 182 190 183 169 165 197 212 157 122 237 231 141 154 240 249 254 250 239 247 261 261 252 246 244 236 226 227 230 231
140 153 161 144 145 162 161 163 167 166 170 172 162 154 164 162 164 172 187 172 154 146 134 147 165 167 167 164 158 161 164 149 147 161 155 148 140 124 116 118 188 168 146 151 168 142 127 185 185 156 195 237 155 154 165 170 188 188 177 186 187 177 179 194 217 213 148 190 238 196 138 211 228 223 237 237 227 230 247 262 257 237 227 207 173 181 208 219
124 130 144 82 124 158 159 163 166 165 169 174 164 157 168 170 172 175 158 142 160 162 154 162 175 172 167 165 157 156 168 167 166 173 163 153 152 144 142 143 105 156 139 149 175 164 138 172 167 136 159 249 201 177 173 168 169 174 187 193 186 188 196 203 217 212 182 227 249 220 221 248 225 204 238 247 239 238 268 287 265 224 217 190 174 191 208 215
141 145 149 102 93 123 117 140 158 161 169 176 178 179 177 176 175 173 159 162 167 171 167 167 172 171 166 166 163 169 179 172 163 166 155 146 153 155 157 164 151 127 132 149 170 247 144 175 165 120 130 244 219 182 179 170 164 176 202 208 200 201 205 211 222 213 196 248 260 268 270 268 236 207 234 267 334 308 265 265 252 235 218 184 182 201 208 216
116 136 139 135 135 132 131 146 158 162 175 185 187 188 184 183 178 165 158 185 171 171 173 164 161 161 163 167 171 175 176 166 159 162 159 156 165 170 167 165 150 140 138 155 162 126 110 147 132 120 157 236 202 149 162 152 144 198 223 216 205 201 205 213 216 197 198 229 243 250 257 256 229 213 218 3 8 232 241 250 258 264 223 182 197 209 209 218
95 91 95 114 122 134 146 151 158 172 185 183 179 182 181 185 179 159 144 313 157 150 150 148 149 150 161 175 179 174 166 155 151 157 155 150 154 151 143 153 156 154 157 162 156 140 141 147 155 156 176 232 195 146 141 109 95 256 239 208 194 196 200 206 220 218 212 215 222 233 238 221 193 185 168 168 219 233 241 238 245 257 225 193 212 215 214 221